This is the latest recevied weather packets stored in our database for station/object WD8INF-9. If no packets are shown the sender has not sent any weather packets the latest 10 day(s).
| Time | Temp. | Humidity | Pressure | Rain* | Wind** | Luminosity | Snow |
|---|---|---|---|---|---|---|---|
| 1778157463 | 16.11° C | - | 1014 hPa | 0 mm | - | - | - |
| 1778157163 | 16.11° C | - | 1013.8 hPa | 0 mm | - | - | - |
| 1778156863 | 15° C | - | 1014.1 hPa | 0 mm | - | - | - |
| 1778156563 | 15° C | - | 1013.8 hPa | 0 mm | - | - | - |
| 1778156262 | 15° C | - | 1014 hPa | 0 mm | - | - | - |
| 1778155962 | 14.44° C | - | 1013.9 hPa | 0 mm | - | - | - |
| 1778155661 | 13.89° C | - | 1013.9 hPa | 0 mm | - | - | - |
| 1778155361 | 12.78° C | - | 1013.8 hPa | 0 mm | - | - | - |
| 1778155061 | 11.67° C | - | 1014 hPa | 0 mm | - | - | - |
| 1778154761 | 10° C | - | 1013.9 hPa | 0 mm | - | - | - |
| 1778154460 | 6.67° C | - | 1013.8 hPa | 0 mm | - | - | - |
| 1778154160 | 5° C | - | 1013.9 hPa | 0 mm | - | - | - |
| 1778153860 | 4.44° C | - | 1014.1 hPa | 0 mm | - | - | - |
| 1778153559 | 3.89° C | - | 1014 hPa | 0 mm | - | - | - |
| 1778153259 | 3.33° C | - | 1013.9 hPa | 0 mm | - | - | - |
| 1778152957 | 3.33° C | - | 1013.6 hPa | 0 mm | - | - | - |
| 1778152657 | 3.33° C | - | 1013.9 hPa | 0 mm | - | - | - |
| 1778152356 | 3.33° C | - | 1013.6 hPa | 0 mm | - | - | - |
| 1778152056 | 2.78° C | - | 1013.7 hPa | 0 mm | - | - | - |
| 1778151755 | 2.78° C | - | 1013.3 hPa | 0 mm | - | - | - |
| 1778151154 | 2.78° C | - | 1013.3 hPa | 0 mm | - | - | - |
| 1778150854 | 2.78° C | - | 1013.4 hPa | 0 mm | - | - | - |
| 1778150554 | 2.78° C | - | 1013.3 hPa | 0 mm | - | - | - |
| 1778150254 | 2.78° C | - | 1013.4 hPa | 0 mm | - | - | - |
| 1778149953 | 2.78° C | - | 1013.3 hPa | 0 mm | - | - | - |
* Rain since midnight (hover to see other rain measurements)
** Current wind speed in m/s (hover to see current wind gust speed)